Location: Gro�wechsungen
(51.4926°N, 10.6901°E)
Time: 12:29:40
(UTC+00:00)

Cosmos 2082 Rocket - Pass Details

Date: 19 January 2021
Orbit: 832 x 854 km, 71.0° (Epoch: 04 March)

Event Time Altitude Azimuth Distance (km) Brightness Sun altitude
Rises 16:17:09 0° 320° (NW) 3,434 5.6 -5.3°
Reaches altitude 10° 16:21:41 10° 353° (N) 2,499 4.5 -5.9°
Maximum altitude 16:23:32 11° 12° (NNE) 2,393 4.2 -6.2°
Drops below altitude 10° 16:25:23 10° 31° (NNE) 2,498 4.2 -6.4°
Enters shadow 16:27:17 - 48° (NE) 2,799 4.3 -6.7°
